Flag for U.S.A. Weather past 2 weeks in New Orleans, Louisiana, U.S.A.

Now
74 °F

Clear.


Feels Like: 76 °F
Forecast: 64 / 81 °F
Wind: 13 mph from Southwest

Location: Lakefront Airport

Current Time: Mar 30, 2015 at 11:08:29 PM

Latest Report: Mar 30, 2015 at 9:53 PM


Visibility: 10 mi

Pressure: 30.14 "Hg

Humidity: 69%

Dew point: 63 °F

Location of New OrleansLocation

Historic Weather in New Orleans — Graph

°F

New Orleans temperature yesterday

Maximum temperature yesterday: 78 °F (at 2:53 PM)
Minimum temperature yesterday: 58 °F (at 4:53 AM)
Average temperature yesterday: 68 °F

Past Weeks' High & Low Weather Summary

 TemperatureHumidityPressure
High83 °F (Mar 21, 1:53 PM)94% (Mar 25, 7:53 AM)30.29 "Hg (Mar 25, 7:53 AM)
Low53 °F (Mar 28, 6:53 AM)31% (Mar 27, 12:53 PM)29.78 "Hg (Mar 26, 4:53 PM)
Average70 °F71%30.05 "Hg
* Reported Mar 15 9:53 PM — Mar 30 9:53 PM, New Orleans, Weather by CustomWeather, © 2015

Note: Actual official high and low records may vary slightly from our data, if they occured in-between our weather recording intervals... More about our weather records

Advertising

New Orleans weather history for previous 24 hours

 ConditionsComfort  
Time TempWeatherWind HumidityBarometerVisibility
9:53 PM
Mon, Mar 30
74 °FClear.13 mph69%30.14 "Hg10 mi
8:53 PM75 °FClear.13 mph62%30.13 "Hg10 mi
7:53 PM77 °FSunny.12 mph58%30.11 "Hg10 mi
6:53 PM80 °FPartly sunny.3 mph51%30.10 "Hg10 mi
5:53 PM81 °FScattered clouds.3 mph53%30.11 "Hg10 mi
4:53 PM82 °FPassing clouds.5 mph51%30.11 "Hg10 mi
3:53 PM81 °FSunny.3 mph54%30.13 "Hg10 mi
2:53 PM78 °FPassing clouds.6 mph62%30.16 "Hg10 mi
1:53 PM76 °FScattered clouds.6 mph69%30.19 "Hg10 mi
12:53 PM77 °FScattered clouds.7 mph66%30.21 "Hg10 mi
11:53 AM76 °FBroken clouds.8 mph67%30.23 "Hg10 mi
10:53 AM74 °FSunny.7 mph69%30.24 "Hg10 mi
9:53 AM72 °FSunny.3 mph71%30.25 "Hg10 mi
8:53 AM69 °FPartly sunny.3 mph84%30.24 "Hg10 mi
7:53 AM68 °FPartly sunny.5 mph84%30.24 "Hg7 mi
6:53 AM67 °FPartly cloudy.No wind85%30.21 "Hg4 mi
5:53 AM67 °FPassing clouds.No wind85%30.18 "Hg8 mi
4:53 AM67 °FPassing clouds.5 mph87%30.16 "Hg10 mi
3:53 AM67 °FClear.3 mph85%30.16 "Hg10 mi
2:53 AM67 °FClear.3 mph81%30.15 "Hg10 mi
1:53 AM66 °FClear.9 mph84%30.16 "Hg10 mi
12:53 AM66 °FClear.6 mph84%30.19 "Hg10 mi
11:53 PM
Sun, Mar 29
66 °FClear.7 mph84%30.20 "Hg10 mi
Weather by CustomWeather, © 2015

See weather overviewHow to use our weather pages